{"data":{"norad_id":58112,"epoch":"2026-05-25T01:34:23.221056Z","epoch_age_seconds":59472,"freshness":"FRESH","line1":"1 58112U 23161R   26145.06554654  .00000379  00000+0  24941-4 0  9995","line2":"2 58112  53.1596 170.8738 0001126  78.1237 281.9890 15.30192386146118","mean_motion":15.30192386,"eccentricity":0.0001126,"inclination_deg":53.1596,"raan_deg":170.8738,"arg_perigee_deg":78.1237,"mean_anomaly_deg":281.989,"bstar":2.4941e-5,"rev_number":14611,"period_min":94.105813960049,"perigee_km":474.46611354228,"apogee_km":476.00949354804,"semimajor_km":6853.3748035452,"source":"CELESTRAK","updated_at":"2026-05-25T13:38:18.529146Z"}}